TimeEDT,TemperatureF,Dew PointF,Humidity,Sea Level PressureIn,VisibilityMPH,Wind Direction,Wind SpeedMPH,Gust SpeedMPH,PrecipitationIn,Events,Conditions,WindDirDegrees,DateUTC
12:17 AM,73.0,70.0,90,29.97,10.0,SSE,5.8,-,N/A,,Mostly Cloudy,160,2013-08-07 04:17:00
12:26 AM,73.0,70.0,90,29.97,10.0,South,6.9,-,N/A,,Scattered Clouds,170,2013-08-07 04:26:00
12:54 AM,73.0,70.0,90,29.94,10.0,South,4.6,-,N/A,,Clear,180,2013-08-07 04:54:00
1:54 AM,73.0,70.0,90,29.95,8.0,Calm,Calm,-,N/A,,Clear,0,2013-08-07 05:54:00
2:25 AM,73.0,71.1,93,29.98,8.0,SSE,3.5,-,N/A,,Mostly Cloudy,160,2013-08-07 06:25:00
2:38 AM,73.0,71.1,93,29.98,6.0,South,3.5,-,N/A,,Overcast,180,2013-08-07 06:38:00
2:54 AM,73.0,70.0,90,29.95,7.0,Calm,Calm,-,N/A,,Overcast,0,2013-08-07 06:54:00
3:04 AM,73.0,70.0,90,29.98,6.0,Calm,Calm,-,N/A,,Overcast,0,2013-08-07 07:04:00
3:18 AM,73.0,71.1,93,29.97,7.0,South,3.5,-,N/A,,Overcast,170,2013-08-07 07:18:00
3:42 AM,73.9,71.1,91,29.97,7.0,South,3.5,-,N/A,,Overcast,170,2013-08-07 07:42:00
3:54 AM,73.0,71.1,93,29.95,6.0,SSE,3.5,-,N/A,,Overcast,160,2013-08-07 07:54:00
4:03 AM,73.0,71.1,93,29.97,6.0,South,3.5,-,N/A,,Mostly Cloudy,170,2013-08-07 08:03:00
4:46 AM,73.0,71.1,93,29.96,4.0,SSE,4.6,-,N/A,,Mostly Cloudy,160,2013-08-07 08:46:00
4:54 AM,73.0,71.1,93,29.93,4.0,SSE,5.8,-,N/A,,Mostly Cloudy,160,2013-08-07 08:54:00
5:01 AM,73.0,71.1,93,29.96,4.0,SSE,5.8,-,N/A,,Mostly Cloudy,150,2013-08-07 09:01:00
5:08 AM,73.0,71.1,93,29.95,4.0,SSE,3.5,-,N/A,,Mostly Cloudy,150,2013-08-07 09:08:00
5:54 AM,73.9,72.0,93,29.93,4.0,SSW,5.8,-,N/A,,Overcast,200,2013-08-07 09:54:00
6:41 AM,73.9,72.0,93,29.98,2.5,South,3.5,-,N/A,,Mostly Cloudy,190,2013-08-07 10:41:00
6:54 AM,73.9,72.0,93,29.95,2.5,South,4.6,-,N/A,,Scattered Clouds,190,2013-08-07 10:54:00
7:02 AM,73.0,72.0,96,29.97,1.8,South,6.9,-,N/A,,Scattered Clouds,170,2013-08-07 11:02:00
7:21 AM,73.9,72.0,93,29.98,2.0,SSW,8.1,-,N/A,,Mostly Cloudy,200,2013-08-07 11:21:00
7:29 AM,75.0,73.0,94,29.98,1.8,SSW,5.8,-,N/A,,Mostly Cloudy,200,2013-08-07 11:29:00
7:41 AM,75.0,73.0,94,29.98,2.0,SSW,6.9,-,N/A,,Mostly Cloudy,200,2013-08-07 11:41:00
7:54 AM,75.0,73.0,94,29.95,2.5,SW,5.8,-,N/A,,Mostly Cloudy,220,2013-08-07 11:54:00
8:25 AM,75.9,73.9,94,29.99,3.0,SW,5.8,-,N/A,,Overcast,220,2013-08-07 12:25:00
8:44 AM,77.0,73.0,88,29.98,5.0,SW,5.8,-,N/A,,Overcast,220,2013-08-07 12:44:00
8:54 AM,77.0,73.0,88,29.95,6.0,SSW,6.9,-,N/A,,Mostly Cloudy,200,2013-08-07 12:54:00
9:54 AM,79.0,72.0,79,29.95,10.0,South,11.5,-,N/A,,Partly Cloudy,180,2013-08-07 13:54:00
10:54 AM,80.1,70.0,71,29.97,10.0,SSW,10.4,-,N/A,,Overcast,200,2013-08-07 14:54:00
11:54 AM,82.0,71.1,69,29.95,10.0,SSW,12.7,-,N/A,,Scattered Clouds,200,2013-08-07 15:54:00
12:54 PM,81.0,71.1,72,29.95,10.0,SSW,8.1,-,N/A,,Mostly Cloudy,200,2013-08-07 16:54:00
1:03 PM,82.0,72.0,71,29.98,10.0,SSW,6.9,-,N/A,,Mostly Cloudy,210,2013-08-07 17:03:00
1:31 PM,79.0,71.1,77,29.98,10.0,South,11.5,-,N/A,,Mostly Cloudy,190,2013-08-07 17:31:00
1:38 PM,77.0,72.0,84,29.98,1.8,SSE,5.8,-,0.06,Rain,Heavy Rain,160,2013-08-07 17:38:00
1:44 PM,75.9,72.0,87,29.98,3.0,SSE,4.6,-,0.08,Rain,Light Rain,150,2013-08-07 17:44:00
1:54 PM,77.0,73.0,88,29.96,10.0,SSE,4.6,-,0.08,,Overcast,150,2013-08-07 17:54:00
2:47 PM,81.0,75.9,85,29.96,10.0,South,8.1,-,N/A,,Scattered Clouds,170,2013-08-07 18:47:00
2:54 PM,82.0,75.0,79,29.93,10.0,South,8.1,-,N/A,,Partly Cloudy,170,2013-08-07 18:54:00
3:54 PM,84.0,75.0,74,29.91,10.0,South,6.9,-,N/A,,Mostly Cloudy,170,2013-08-07 19:54:00
4:03 PM,82.9,73.9,74,29.93,10.0,SE,6.9,-,N/A,,Mostly Cloudy,140,2013-08-07 20:03:00
4:36 PM,78.1,73.9,87,29.93,3.0,East,6.9,-,0.08,Rain-Thunderstorm,Thunderstorms and Rain,90,2013-08-07 20:36:00
4:54 PM,79.0,75.0,88,29.90,10.0,NE,9.2,-,0.13,Thunderstorm,Thunderstorm,50,2013-08-07 20:54:00
5:06 PM,81.0,75.9,85,29.93,10.0,ENE,8.1,-,N/A,,Mostly Cloudy,70,2013-08-07 21:06:00
5:14 PM,81.0,75.0,82,29.93,10.0,ENE,6.9,-,N/A,,Mostly Cloudy,70,2013-08-07 21:14:00
5:22 PM,81.0,73.9,79,29.93,10.0,East,9.2,-,N/A,,Scattered Clouds,90,2013-08-07 21:22:00
5:54 PM,80.1,73.9,81,29.90,10.0,East,6.9,-,N/A,,Scattered Clouds,100,2013-08-07 21:54:00
6:54 PM,82.0,73.0,74,29.89,10.0,SSW,5.8,-,N/A,,Clear,200,2013-08-07 22:54:00
7:54 PM,81.0,73.9,79,29.88,10.0,South,3.5,-,N/A,,Partly Cloudy,180,2013-08-07 23:54:00
8:21 PM,79.0,73.9,84,29.93,9.0,WSW,9.2,-,0.00,Rain-Thunderstorm,Light Rain,240,2013-08-08 00:21:00
8:24 PM,79.0,73.9,84,29.93,4.0,SSW,9.2,-,0.00,Rain-Thunderstorm,Light Thunderstorms and Rain,210,2013-08-08 00:24:00
8:27 PM,78.1,73.0,84,29.93,1.8,Variable,6.9,-,0.04,Rain-Thunderstorm,Heavy Thunderstorms and Rain,0,2013-08-08 00:27:00
8:35 PM,75.9,72.0,87,29.92,1.5,East,6.9,-,0.23,Rain-Thunderstorm,Light Thunderstorms and Rain,90,2013-08-08 00:35:00
8:39 PM,77.0,72.0,84,29.93,3.0,Variable,3.5,-,0.23,Rain-Thunderstorm,Light Rain,0,2013-08-08 00:39:00
8:54 PM,75.9,72.0,87,29.90,10.0,West,4.6,-,0.24,Thunderstorm,Overcast,280,2013-08-08 00:54:00
9:45 PM,73.9,71.1,91,29.97,10.0,SSE,4.6,-,0.00,Rain-Thunderstorm,Light Rain,150,2013-08-08 01:45:00
9:54 PM,73.9,71.1,91,29.94,10.0,East,3.5,-,0.00,Thunderstorm,Overcast,80,2013-08-08 01:54:00
10:04 PM,73.9,71.1,91,29.97,10.0,ESE,3.5,-,N/A,,Overcast,110,2013-08-08 02:04:00
10:11 PM,73.9,71.1,91,29.97,10.0,SE,4.6,-,N/A,,Overcast,130,2013-08-08 02:11:00
10:54 PM,73.9,71.1,91,29.95,10.0,SE,4.6,-,0.00,,Overcast,130,2013-08-08 02:54:00
11:25 PM,73.9,71.1,91,29.98,10.0,SSE,6.9,-,N/A,Thunderstorm,Overcast,160,2013-08-08 03:25:00
11:52 PM,73.4,71.6,94,29.99,10.0,SSW,11.5,-,N/A,,Overcast,210,2013-08-08 03:52:00
11:54 PM,73.9,71.1,91,29.96,10.0,SSW,10.4,-,0.00,Rain-Thunderstorm,Light Rain,210,2013-08-08 03:54:00